Dean International
Flight School

Career Spotlight

Mika

Mika

Congratulations to Mika from Khazakstan. She recently sent us this photo of her flying an Airbus airliner.

More...
Mika's Success Story
close

Congratulations to Mika from Khazakstan. She recently sent us this photo of her flying an Airbus airliner.

Mario

Mario

My dreams could not have been realized if I wouldn't have been part of the Dean International family.

More...
Mario's Success Story
close

"My dreams could not have been realized if I wouldn't have been part of the Dean International family. Thank you Robert, thanks to all my co-workers, and thanks to all of my students!"

Fernando

Fernando

I am now working as a First Officer at TACA and am enjoying every moment of it.

More...
Fernando's Success Story
close

"Will never forget my time of flight training at Dean International. I am now working as a First Officer at TACA and am enjoying every moment of it."

Alvaro

Alvaro

Because of the flight time I was able to built while instructing, I got the experience needed to apply to an airline in Colombia.

More...
Alvaro's Success Story
close

Dean alumnus Alvaro Londoño currently flies with Tampa Cargo. He says of his experience at Dean: "I want to take this opportunity to thank you for giving me the chance to build my experience and expand my knowledge in Dean International. Because of the flight time I was able to built flight instructing, I got the experience needed to apply to an airline in Colombia."

Ralph

Ralph

Every Aruban student of Dean International has made it into Tiara Air Aruba, that is very nice.

More...
Ralph's Success Story
close

"Next to me is my Co-Pilot, Elison. This picture was taken on our first flight together, which was almost exactly 5 years after I finished at Dean International. [...] Every Aruban student of Dean International has made it into Tiara Air Aruba. [...] The future looks bright here in Aruba."

Rohaan

Rohaan

The [..] staff will all work diligently to help you finish your certificates as safely and efficiently as possible.

More...
Rohaan's Success Story
close

After receiving very hard times from other flight schools [...], I came to Dean International where Robert Dean personally sat down with me and gave me a financial and chronological look into how much remained to finish my private pilot certificate. Through his hard efforts as an instructor and mentor, I was able to finish my private pilot certificate within one week.

Welcome to Dean International

In over two decades, Dean International has educated over 7,000 pilots from all over the world, including over 1,000 students from India alone. By offering a great training experience, a friendly service staff, an ample variety of aircraft, and by improving constantly, we have become one of the largest, most prestigious FAA 141-approved flight schools in North America. Located in Miami, Florida, USA, our flight school offers an ideal location for year-round, "learn to fly" weather, flight training. Dean International is not only well-equipped to provide services to professional trainees but also caters to General Aviation renters. Visit or contact our headquarters at Kendall-Tamiami Executive Airport located in Miami, FL today to learn more about us, or simply read more about our programs if you are an international student interested in joining our school.

Local Airport Information
TAF FOR KTMB (Issued: Thu, May 5th 2016 6:27 PM UTC)
TAF KTMB 051725Z 0518/0618 33013G23KT P6SM SKC
      FM060000 29010KT P6SM FEW025 SCT250
      FM060300 32005KT P6SM SKC
      FM061400 32010KT P6SM SKC
     
METAR FOR KTMB (Issued: Thu, May 5th 2016 5:53 PM UTC):
KTMB 051753Z 31014KT 10SM CLR 27/12 A2981 RMK AO2 SLP094 T02720117 10272 20211 58009

This weather information is provided by the National Weather Service.
It is automatically refreshed every three minutes.
TAF FOR KHST (Issued: Thu, May 5th 2016 4:07 PM UTC)
TAF KHST 051600Z 0516/0622 32015G20KT 9999 FEW040 QNH2979INS
      BECMG 0523/0524 VRB06KT 9999 FEW030 QNH2980INS TX25/0517Z TN17/0611Z
     
METAR FOR KHST (Issued: Thu, May 5th 2016 5:58 PM UTC):
KHST 051758Z AUTO 34014G18KT 300V360 10SM CLR 27/12 A2981 RMK AO2 SLP098 T02700121 10274 20208 57009

This weather information is provided by the National Weather Service.
It is automatically refreshed every three minutes.
TAF FOR KOPF (Issued: Thu, May 5th 2016 6:27 PM UTC)
TAF KOPF 051725Z 0518/0618 33015G25KT P6SM SKC
      FM060000 29010KT P6SM FEW025 SCT250
      FM060300 32005KT P6SM SKC
      FM061400 32011KT P6SM SKC
     
METAR FOR KOPF (Issued: Thu, May 5th 2016 5:53 PM UTC):
KOPF 051753Z 35011KT 10SM CLR 27/11 A2981 RMK AO2 SLP095 T02720106 10272 20211 58007

This weather information is provided by the National Weather Service.
It is automatically refreshed every three minutes.
TAF FOR KMIA (Issued: Thu, May 5th 2016 6:30 PM UTC)
TAF KMIA 051725Z 0518/0618 32015G25KT P6SM SKC
      FM060000 29010KT P6SM FEW025 SCT250
      FM060300 32005KT P6SM SKC
      FM061400 32010KT P6SM SKC
     
METAR FOR KMIA (Issued: Thu, May 5th 2016 5:53 PM UTC):
KMIA 051753Z 01008G17KT 10SM CLR 26/11 A2981 RMK AO2 SLP094 T02610106 10267 20206 58009 $

This weather information is provided by the National Weather Service.
It is automatically refreshed every three minutes.
Design by Ariel Llizo
© Dean International Inc. 2012